Weather History for KSUX - May, 2013

Change the Weather History Date:

Thursday, May 16, 2013

  Actual Average Record
Temperature  
Mean Temperature 69 °F 61 °F  
Max Temperature 88 °F 73 °F 92 °F (1936)
Min Temperature 50 °F 49 °F 28 °F (2014)
Degree Days  
Heating Degree Days 0 6  
Month to date heating degree days 189 123  
Since 1 July heating degree days 7017 6775  
Cooling Degree Days 4 2  
Month to date cooling degree days 23 18  
Year to date cooling degree days 24 29  
Growing Degree Days 19 (Base 50)    
Moisture  
Dew Point 53 °F    
Average Humidity 64    
Maximum Humidity 97    
Minimum Humidity 17    
Precipitation  
Precipitation 0.60 in 0.13 in 1.34 in (1992)
Month to date precipitation 2.69 1.88  
Year to date precipitation 10.74 8.12  
Snow  
Snow 0.00 in 0.00 in 0.00 in ()
Month to date snowfall 1.4 0.2  
Since 1 July snowfall 45.1 35.0  
Snow Depth 0.00 in    
Sea Level Pressure  
Sea Level Pressure 29.82 in    
Wind  
Wind Speed 8 mph (ESE)    
Max Wind Speed 35 mph    
Max Gust Speed 45 mph    
Visibility 9 miles    
Events Fog , Rain , Thunderstorm    
T = Trace of Precipitation, MM = Missing Value Source: NWS Daily Summary

Daily Weather History Graph

Daily Weather History Graph

Search for Another Location

Airport or City:

Trip Planner

Search our weather history database for the weather conditions in past years. The results will help you decide how hot, cold, wet, or windy it might be!

Date:

Astronomy

May. 16, 2013 Rise Set
Actual Time 6:02 AM CDT 8:41 PM CDT
Civil Twilight 5:30 AM CDT 9:14 PM CDT
Nautical Twilight 4:49 AM CDT 9:54 PM CDT
Astronomical Twilight 4:03 AM CDT 10:41 PM CDT
Moon 11:39 AM CDT (5/16) 1:01 AM CDT (5/16)
Length of Visible Light 15h 43m
Length of Day
14h 38m
Waxing Crescent, 36% of the Moon is Illuminated
May 16
Waxing Crescent
May 17
First Quarter
May 24
Full
May 31
Last Quarter
Jun 8
New

Hourly Weather History & Observations

Time (CDT) Temp. Heat Index Dew Point Humidity Pressure Visibility Wind Dir Wind Speed Gust Speed Precip Events Conditions
12:52 AM 59.0 °F - 44.1 °F 58% 29.88 in 10.0 mi Calm Calm - N/A   Clear
1:52 AM 55.9 °F - 43.0 °F 62% 29.87 in 10.0 mi Calm Calm - N/A   Clear
2:52 AM 57.9 °F - 44.1 °F 60% 29.86 in 10.0 mi Calm Calm - N/A   Clear
3:52 AM 60.1 °F - 45.0 °F 57% 29.85 in 10.0 mi NE 3.5 mph - N/A   Clear
4:52 AM 55.9 °F - 44.1 °F 64% 29.86 in 10.0 mi Calm Calm - N/A   Clear
5:52 AM 51.1 °F - 45.0 °F 80% 29.86 in 10.0 mi Calm Calm - N/A   Clear
6:52 AM 54.0 °F - 46.0 °F 75% 29.87 in 10.0 mi NNW 3.5 mph - N/A   Clear
7:52 AM 61.0 °F - 50.0 °F 67% 29.88 in 10.0 mi Calm Calm - N/A   Clear
8:52 AM 66.9 °F - 48.9 °F 52% 29.88 in 10.0 mi East 5.8 mph - N/A   Clear
9:52 AM 73.9 °F - 50.0 °F 43% 29.86 in 10.0 mi ESE 6.9 mph - N/A   Clear
10:52 AM 79.0 °F - 48.9 °F 35% 29.83 in 10.0 mi SE 9.2 mph 19.6 mph N/A   Clear
11:52 AM 82.9 °F - 48.9 °F 31% 29.81 in 10.0 mi SE 18.4 mph 24.2 mph N/A   Clear
12:52 PM 84.9 °F - 46.9 °F 27% 29.78 in 10.0 mi SE 19.6 mph 25.3 mph N/A   Clear
1:52 PM 86.0 °F - 48.9 °F 28% 29.77 in 10.0 mi SE 21.9 mph 29.9 mph N/A   Clear
2:52 PM 86.0 °F 84.7 °F 55.9 °F 36% 29.75 in 10.0 mi SE 16.1 mph 20.7 mph N/A   Scattered Clouds
3:52 PM 81.0 °F 81.7 °F 61.0 °F 50% 29.75 in 10.0 mi South 12.7 mph - N/A   Scattered Clouds
4:12 PM 80.6 °F 81.5 °F 60.8 °F 51% 29.77 in 10.0 mi South 8.1 mph - N/A Thunderstorm Mostly Cloudy
4:23 PM 78.8 °F - 60.8 °F 54% 29.78 in 10.0 mi WNW 26.5 mph 41.4 mph N/A Thunderstorm Squalls
4:40 PM 62.6 °F - 57.2 °F 82% 29.88 in 1.8 mi West 34.5 mph 44.9 mph 0.00 in Rain , Thunderstorm Heavy Thunderstorms and Rain
4:48 PM 60.8 °F - 57.2 °F 88% 29.82 in 0.5 mi NW 20.7 mph 42.6 mph 0.27 in Fog , Rain , Thunderstorm Heavy Thunderstorms and Rain
4:52 PM 61.0 °F - 60.1 °F 97% 29.83 in 1.0 mi NNW 24.2 mph 36.8 mph 0.46 in Rain , Thunderstorm Heavy Thunderstorms and Rain
4:58 PM 62.6 °F - 60.8 °F 94% 29.82 in 3.0 mi North 17.3 mph 26.5 mph 0.12 in Rain , Thunderstorm Heavy Thunderstorms and Rain
5:47 PM 64.4 °F - 57.2 °F 77% 29.77 in 10.0 mi NNE 11.5 mph - 0.14 in   Clear
5:52 PM 64.0 °F - 57.9 °F 80% 29.77 in 10.0 mi NNE 11.5 mph - 0.14 in   Clear
6:52 PM 64.9 °F - 59.0 °F 81% 29.80 in 10.0 mi East 5.8 mph - N/A   Partly Cloudy
7:52 PM 64.9 °F - 60.1 °F 84% 29.78 in 10.0 mi East 11.5 mph - N/A   Clear
8:52 PM 64.0 °F - 61.0 °F 90% 29.80 in 10.0 mi SE 5.8 mph - 0.00 in Rain Light Rain
9:52 PM 64.0 °F - 60.1 °F 87% 29.79 in 10.0 mi SSE 8.1 mph - 0.00 in   Partly Cloudy
10:52 PM 64.0 °F - 60.1 °F 87% 29.80 in 10.0 mi SE 5.8 mph - N/A   Partly Cloudy
11:52 PM 63.0 °F - 61.0 °F 93% 29.79 in 10.0 mi SE 5.8 mph - N/A   Clear